Voltar ao catálogo

SL-14 DEB

AtivoPO
NORAD 45330·DEBRIS·🇷🇺 Russia

Lançado Aug 15, 1991 de Plesetsk Cosmodrome

Loading…

Próximas Passagens (próximas 24 horas)

TLE

AtualizadoSource: Space-Track

Época: Sep 14, 2026, 06:59 UTC

1 45330U 91056BU  26257.29142721  .00000872  00000-0  15632-2 0  9992
2 45330  82.5631  20.2665 0072230 350.0229   9.9467 13.39703594320990

Acompanhe SL-14 DEB em tempo real com AllMySat

Download on the App Store